#timestamp,LO_Frequency,Hit,StdDev 
1628917215.1,286046998.8,N
1628917235.9,286046998.1,N
1628917255.7,286046999.3,N
1628917275.6,286046999.1,N
1628917295.4,286046998.2,N
1628917315.2,286046998.2,N
1628917335.1,286047000.5,N
1628917336.0,286047000.5,N
1628917355.8,286047000.1,N
1628917375.7,286046999.9,N
1628917395.5,286047000.1,N
1628917415.3,286047002.4,N
1628917435.2,286047002.3,N
1628917455.0,286047004.0,Y
1628917455.9,286047004.0,P
1628917475.8,286047001.4,N
1628917495.6,286047003.1,N
1628917515.4,286047005.5,Y
1628917535.3,286047002.2,P
1628917555.1,286047000.9,P
1628917575.8,286047000.8,N
1628917595.7,286046998.9,N
1628917615.5,286046998.9,N
1628917635.4,286046999.1,N
1628917655.2,286046998.6,N
1628917675.0,286046998.3,N
1628917675.9,286046998.3,N
1628917695.8,286047000.9,N
1628917715.6,286047001.0,N
1628917735.4,286047001.2,N
1628917755.3,286047001.0,N
1628917775.1,286047001.2,N
1628917795.9,286047000.5,N
1628917815.7,286046998.2,N
1628917835.5,286047001.1,N
1628917855.4,286047001.0,N
1628917875.2,286047001.1,N
1628917895.0,286047000.8,N
1628917896.0,286047000.8,N
1628917915.8,286047000.6,N
1628917935.6,286047000.8,N
1628917955.5,286047000.5,N
1628917975.3,286047000.1,N
1628917995.1,286047000.2,N
1628918015.9,286047002.5,N
1628918035.7,286047002.2,N
1628918055.6,286047004.4,Y
1628918075.4,286046999.9,P
1628918095.2,286047000.1,N
1628918115.1,286047002.7,P
1628918116.0,286047002.7,N
1628918135.8,286047000.2,N
1628918155.7,286047002.3,N
1628918175.5,286046999.7,N
1628918195.3,286047001.6,N
1628918215.2,286047004.4,Y
1628918235.0,286047004.4,P
1628918235.9,286047004.4,N
1628918255.7,286047001.8,N
1628918275.6,286047002.1,N
1628918295.4,286047002.5,N
1628918315.3,286047002.8,N
1628918335.1,286046999.7,N
1628918336.0,286046999.7,N
1628918355.8,286046999.8,N
1628918375.7,286047000.6,N
1628918395.5,286046999.7,N
1628918415.4,286047001.9,N
1628918435.2,286047002.6,N
1628918455.0,286047001.7,N
1628918455.9,286047001.7,N
1628918475.8,286047002.3,N
1628918495.6,286047001.8,N
1628918515.4,286047004.3,Y
1628918535.3,286047000.0,P
1628918555.1,286047000.2,N
1628918575.9,286047000.1,N
1628918595.7,286047000.0,N
1628918615.5,286046999.8,N
1628918635.4,286047002.0,Y
1628918655.2,286047000.3,P
1628918675.0,286047000.6,P
1628918675.9,286047000.6,P
1628918695.8,286047000.0,N
1628918715.6,286047000.8,Y
1628918735.5,286047000.4,P
1628918755.3,286046998.1,P
1628918775.1,286047000.3,N
1628918795.9,286047001.0,N
1628918815.7,286047000.5,N
1628918835.5,286046998.5,N
1628918855.4,286047001.2,N
1628918875.2,286047000.9,N
1628918895.1,286047000.3,N
1628918896.0,286047000.3,N
1628918915.8,286047001.9,N
1628918935.6,286047002.7,N
1628918955.5,286047002.2,N
1628918975.3,286047000.4,N
1628918995.2,286047000.1,N
1628919015.9,286046999.6,N
1628919035.7,286046997.9,N
1628919055.6,286046995.6,Y
1628919075.4,286046996.1,P
1628919095.2,286046996.0,N
1628919115.1,286046995.8,N
1628919116.0,286046995.8,N
1628919135.8,286046995.9,N
1628919155.7,286046993.3,Y
1628919175.5,286046999.5,P
1628919195.3,286046998.9,N
1628919215.2,286046998.7,N
1628919235.0,286046996.6,Y
1628919235.9,286046996.6,P
1628919255.8,286047001.0,N
1628919275.6,286047001.0,N
1628919295.4,286047000.3,N
1628919315.3,286047000.2,N
1628919335.1,286046999.7,N
1628919355.8,286047000.1,N
1628919375.7,286047000.3,N
1628919395.5,286047001.0,N
1628919415.4,286047001.1,N
1628919435.2,286046998.2,N
1628919455.0,286047001.1,N
1628919455.9,286047001.1,N
1628919475.8,286047000.2,N
1628919495.6,286047002.7,N
1628919515.4,286047000.3,N
1628919535.3,286046999.9,N
1628919555.1,286047002.1,N
1628919575.9,286046999.9,N
1628919595.7,286047000.3,N
1628919615.5,286047000.2,N
1628919635.4,286047002.5,N
1628919655.2,286047002.2,N
1628919675.0,286047002.1,N
1628919675.9,286047002.1,N
1628919695.8,286047004.2,Y
1628919715.6,286047002.6,P
1628919735.5,286046999.7,N
1628919755.3,286047000.9,N
1628919775.1,286046999.9,N
1628919795.9,286047002.3,N
1628919815.7,286046999.7,N
1628919835.6,286046998.1,N
1628919855.4,286047001.2,N
1628919875.2,286046999.4,N
1628919895.1,286046999.2,N
1628919896.0,286046999.2,N
1628919915.8,286046999.0,N
1628919935.6,286047000.8,N
1628919955.5,286046998.5,N
1628919975.3,286046998.8,N
1628919995.2,286046998.7,N
1628920015.9,286046999.5,N
1628920035.7,286046998.3,N
1628920055.6,286046998.7,N
1628920075.4,286046998.3,N
1628920095.2,286046999.3,N
1628920115.1,286046999.0,N
1628920116.0,286046999.0,N
1628920135.8,286046998.2,N
1628920155.7,286047000.9,N
1628920175.5,286047000.7,N
1628920195.3,286047001.1,N
1628920215.2,286046998.5,N
1628920235.0,286047001.0,N
1628920235.9,286047001.0,N
1628920255.7,286046998.1,N
1628920275.6,286046999.3,N
1628920295.4,286046999.3,N
1628920315.3,286046998.7,N
1628920335.1,286046998.6,N
1628920355.9,286047000.3,N
1628920375.7,286047001.1,N
1628920395.5,286047000.3,N
1628920415.4,286047000.7,N
1628920435.2,286047000.9,N
1628920455.1,286047000.4,N
1628920456.0,286047000.4,N
1628920475.8,286046999.9,N
1628920495.6,286047000.1,N
1628920515.5,286047000.5,N
1628920535.3,286047000.2,N
1628920555.2,286047000.0,N
1628920575.9,286046999.7,N
1628920595.7,286047000.2,N
1628920615.6,286047000.3,N
1628920635.4,286047002.6,N
1628920655.2,286047000.4,N
1628920675.1,286047000.1,N
1628920676.0,286047000.1,N
1628920695.8,286047000.5,N
1628920715.7,286047001.9,N
1628920735.5,286047001.3,N
1628920755.3,286047002.3,N
1628920775.2,286047002.0,N
1628920795.0,286047001.6,N
1628920795.9,286047001.6,N
